Location: Praha
(50.0830°N, 14.4670°E)
Time: 02:32:20
(UTC+02:00)

ISS - Pass Details

Date: 13 May 2024
Orbit: 409 x 414 km, 51.6° (Epoch: 23 May)

Event Time Altitude Azimuth Distance (km) Brightness Sun altitude
Rises 01:10:46 0° 283° (WNW) 2,349 0.2 -21.4°
Reaches altitude 10° 01:12:52 10° 285° (WNW) 1,484 -0.9 -21.4°
Enters shadow 01:14:35 28° 289° (WNW) 813 -2.2 -21.4°
